Regional Weather Roundup
Issued by NWS

Home | Current Version | Previous Version | Graphics & Text | Print | Product List | Glossary Off
Versions: 1 2 3 4 5 6 7 8 9 10 11 12 13 14 15 16 17 18 19 20 21 22 23 24 25 26 27 28 29 30 31 32 33 34 35 36 37 38 39 40 41 42 43 44 45 46 47 48 49 50

000
ASUS43 KMKX 270621
RWRWI

WISCONSIN REGIONAL WEATHER ROUNDUP
NATIONAL WEATHER SERVICE MILWAUKEE/SULLIVAN WI
100 AM CDT WED JUL 27 2016

NOTE: "FAIR" INDICATES FEW OR NO CLOUDS BELOW 12,000 FEET WITH NO
SIGNIFICANT WEATHER AND/OR OBSTRUCTIONS TO VISIBILITY.

WIZ001-002-006>008-014>016-023>028-270700-
NORTHWEST WISCONSIN

CITY           SKY/WX    TMP DP  RH WIND       PRES   REMARKS
SUPERIOR ARPT  CLOUDY    70  63  78 SW9       29.96S
6HR MIN TEMP:  66; 6HR MAX TEMP:  79;

ASHLAND        CLOUDY    71  69  93 SW5       29.97F
6HR MIN TEMP:  70; 6HR MAX TEMP:  83; 6HR PCP: TRACE;

HAYWARD        PTCLDY    68  66  93 S3        30.00S
6HR MIN TEMP:  67; 6HR MAX TEMP:  83; 6HR PCP:  0.08;

SIREN          MOCLDY    70  63  78 CALM      29.99F
CUMBERLAND     CLOUDY    64  63  94 S5        30.01S
RICE LAKE      CLOUDY    68  65  89 CALM      30.02S
6HR MIN TEMP:  68; 6HR MAX TEMP:  82;

CHETEK         CLOUDY    70  66  88 CALM      30.01S
6HR MIN TEMP:  70; 6HR MAX TEMP:  83;

LADYSMITH      MOCLDY    66  62  86 CALM      30.03F
6HR MIN TEMP:  66; 6HR MAX TEMP:  83;

EAU CLAIRE     PTCLDY    73  68  84 CALM      29.99F
6HR MIN TEMP:  72; 6HR MAX TEMP:  86;

MENOMONIE      PTCLDY    72  66  82 CALM      30.00S
6HR MIN TEMP:  72; 6HR MAX TEMP:  87;

NEW RICHMOND   MOCLDY    69  65  87 CALM      30.01R
6HR MIN TEMP:  68; 6HR MAX TEMP:  83;

OSCEOLA        PTCLDY    68  64  84 CALM      30.02S
6HR MIN TEMP:  68; 6HR MAX TEMP:  83;

$$

WIZ003>005-009-010-017-018-270700-
NORTH CENTRAL WISCONSIN

CITY           SKY/WX    TMP DP  RH WIND       PRES   REMARKS
MANITOWISH WTR CLOUDY    67  67 100 SW6       30.02R
6HR MIN TEMP:  64; 6HR MAX TEMP:  74; 6HR PCP:  0.06;

ARBOR VITAE    CLOUDY    64  61  91 N10G25    30.06R
6HR MIN TEMP:  64; 6HR MAX TEMP:  83; 6HR PCP:  0.52;

WOODRUFF       CLOUDY    64  61  91 N10G25    30.06R
6HR MIN TEMP:  64; 6HR MAX TEMP:  83; 6HR PCP:  0.52;

RHINELANDER    HVY RAIN  65  60  84 NW16G31   30.03R
6HR MIN TEMP:  65; 6HR MAX TEMP:  83; 6HR PCP:  0.15;

EAGLE RIVER    CLOUDY    65  65 100 SW22G30   30.03R
6HR MIN TEMP:  63; 6HR MAX TEMP:  80;

LAND O LAKES   MOCLDY    61  61  99 CALM      30.02R
6HR MIN TEMP:  61; 6HR MAX TEMP:  79; 6HR PCP:  0.20;

PHILLIPS       PTCLDY    66  65  99 CALM      30.00F
6HR MIN TEMP:  65; 6HR MAX TEMP:  83; 6HR PCP:  0.19;

TOMAHAWK       RAIN      66  60  79 NW8G17    30.04S
6HR MIN TEMP:  65; 6HR MAX TEMP:  82;

MEDFORD        CLOUDY    71  68  92 W5        30.02S
6HR MIN TEMP:  70; 6HR MAX TEMP:  81;

MERRILL        PTCLDY    72  66  81 NW6       30.02R
6HR MIN TEMP:  69; 6HR MAX TEMP:  83;

$$

WIZ029-030-035-036-043>047-270700-
CENTRAL WISCONSIN

CITY           SKY/WX    TMP DP  RH WIND       PRES   REMARKS
WAUSAU         MOCLDY    75  67  76 SW7       29.99R
6HR MIN TEMP:  74; 6HR MAX TEMP:  83;

MOSINEE        CLOUDY    72  68  88 SW8       30.01F
MARSHFIELD     PTCLDY    73  67  81 W6        30.01S
6HR MIN TEMP:  71; 6HR MAX TEMP:  83;

STEVENS POINT  CLOUDY    71  66  84 SW5       30.01S
6HR MIN TEMP:  69; 6HR MAX TEMP:  83;

WAUPACA        CLEAR     73  70  92 CALM      29.99S
6HR MIN TEMP:  73; 6HR MAX TEMP:  87;

WAUTOMA        CLEAR     68  67  96 CALM      30.01S
6HR MIN TEMP:  68; 6HR MAX TEMP:  85;

WISC RAPIDS    CLEAR     73  65  75 SW6       30.02R
6HR MIN TEMP:  72; 6HR MAX TEMP:  86;

CAMP DOUGLAS   PTCLDY    68  66  93 NW3       30.01R
6HR MIN TEMP:  63; 6HR MAX TEMP:  82;

$$

WIZ011>013-019>022-031-037>040-048>050-270700-
NORTHEAST WISCONSIN

CITY           SKY/WX    TMP DP  RH WIND       PRES   REMARKS
ANTIGO         PTCLDY    70  66  88 CALM      30.02R
6HR MIN TEMP:  69; 6HR MAX TEMP:  80;

SHAWANO        CLEAR     75  67  77 SW6       29.97S
6HR MIN TEMP:  75; 6HR MAX TEMP:  86;

OCONTO         CLEAR     72  72 100 NW5       29.94S
6HR MIN TEMP:  72; 6HR MAX TEMP:  84;

STURGEON BAY   PTCLDY    76  68  76 SW8       29.95S
6HR MIN TEMP:  75; 6HR MAX TEMP:  84;

GREEN BAY      CLEAR     73  70  90 SW6       29.96F
6HR MIN TEMP:  73; 6HR MAX TEMP:  83;

MANITOWOC      CLEAR     74  64  71 W6        29.97F
6HR MIN TEMP:  70; 6HR MAX TEMP:  81; 6HR PCP:  0.01;

APPLETON       CLEAR     72  64  78 SW7       29.97F
CLINTONVILLE   CLEAR     72  64  78 W3        29.98S
OSHKOSH        CLEAR     73  65  75 SW3       29.98F
6HR MIN TEMP:  73; 6HR MAX TEMP:  83;

$$

WIZ032>034-041-042-053>061-270700-
SOUTHWEST WISCONSIN

CITY           SKY/WX    TMP DP  RH WIND       PRES   REMARKS
LA CROSSE      CLEAR     75  71  87 E3        29.99S
6HR MIN TEMP:  74; 6HR MAX TEMP:  87;

SPARTA         CLEAR     66  65  97 CALM      30.02S
6HR MIN TEMP:  65; 6HR MAX TEMP:  84;

VIROQUA        CLEAR     69  66  92 SW3       30.03F
6HR MIN TEMP:  68; 6HR MAX TEMP:  82;

BOSCOBEL       FOG       67  66  97 CALM      30.00F VSB 3/4
6HR MIN TEMP:  67; 6HR MAX TEMP:  85;

PRAIRIE DU CHI CLEAR     68  65  89 CALM      30.01S
6HR MIN TEMP:  68; 6HR MAX TEMP:  83;

PLATTEVILLE    CLEAR     71  67  88 CALM      30.02F
6HR MIN TEMP:  68; 6HR MAX TEMP:  82;

$$

WIZ056-057-062-063-064-067-068-270700-
SOUTH CENTRAL WISCONSIN

CITY           SKY/WX    TMP DP  RH WIND       PRES   REMARKS
REEDSBURG      CLEAR     69  68  97 CALM      30.01S
6HR MIN TEMP:  69; 6HR MAX TEMP:  83;

BARABOO/DELLS  CLEAR     69  64  82 SW5       30.02S
6HR MIN TEMP:  69; 6HR MAX TEMP:  82;

LONE ROCK      CLEAR     66  65  96 CALM      30.01F
6HR MIN TEMP:  66; 6HR MAX TEMP:  83;

MINERAL POINT  CLEAR     70  66  88 CALM      30.03S
MADISON        CLEAR     68  65  90 NW3       30.01S
6HR MIN TEMP:  67; 6HR MAX TEMP:  86;

MIDDLETON      CLEAR     66  66 100 CALM      30.02S
6HR MIN TEMP:  66; 6HR MAX TEMP:  85;

WATERTOWN      CLEAR     67  67 100 CALM      30.00F
6HR MIN TEMP:  66; 6HR MAX TEMP:  83;

MONROE         CLEAR     70  63  78 SW5       30.02F
JANESVILLE     CLEAR     68  66  94 CALM      30.00F
$$

WIZ051-052-058>065-066-070>072-270700-
SOUTHEAST WISCONSIN

CITY           SKY/WX    TMP DP  RH WIND       PRES   REMARKS
MILWAUKEE      CLEAR     74  64  71 SW6       29.99F
6HR MIN TEMP:  74; 6HR MAX TEMP:  82;

WAUKESHA       CLEAR     64  61  88 CALM      30.01F
MILWAUKEE/TIMM CLEAR     70  59  68 CALM      30.00F
RACINE         CLEAR     71  63  75 W5        30.01F
6HR MIN TEMP:  71; 6HR MAX TEMP:  81;

BURLINGTON     CLEAR     64  63  96 CALM      30.01F
6HR MIN TEMP:  64; 6HR MAX TEMP:  83;

KENOSHA        CLEAR     68  63  84 CALM      30.01F
6HR MIN TEMP:  67; 6HR MAX TEMP:  82;

FOND DU LAC    CLEAR     70  66  87 CALM      30.00S
6HR MIN TEMP:  69; 6HR MAX TEMP:  84;

SHEBOYGAN      CLEAR     67  64  90 SW7       29.99S
6HR MIN TEMP:  66; 6HR MAX TEMP:  83; 6HR PCP: TRACE;

WEST BEND      CLEAR     66  63  88 CALM      30.00F
JUNEAU         CLEAR     67  65  94 CALM      30.02S
6HR MIN TEMP:  67; 6HR MAX TEMP:  82;

$$

LSZ147-162-270700-
LAKE SUPERIOR

STATION/POSITION TIME  TEMP    WIND        PRES    WAVE
                       AIR SEA DIR/SP/G            HT/PER
                 (UTC) (F)     (DEG/KT/KT) (MB)    (FT/S)
W MID LAKE BUOY  0550   66 62  350/ 10/ 10 1013.5R   1
DEVILS ISLAND    0600   71     290/ 10/ 10 1014.2S
PORT WING        0500   75     160/  2/  4 1014.6S
SAXON HARBOR     0500   72     200/  3/  5 1014.2R
$$

LMZ867-665-643>646-270700-
LAKE MICHIGAN

STATION/POSITION TIME  TEMP    WIND        PRES    WAVE
                       AIR SEA DC1F1C2F2C3F3C4F4C5F5C6F6C7F7C8M1C9M2Ca!



USA.gov is the U.S. government's official web portal to all federal, state and local government web resources and services.